Location: Quaker Farms
(41.4276°N, 73.1557°W)
Time: 10:40:38
(UTC+00:00)

S-56A Canister/Altair - Visible Passes

Search period start: 13 June 2021 00:00
Search period end: 23 June 2021 00:00
Orbit: 632 x 2500 km, 38.9° (Epoch: 12 June)

Date Brightness Start Highest point End Pass type
(mag) Time Alt. Az. Time Alt. Az. Time Alt. Az.
20 Jun 8.6 08:21:53 10° SSW 08:25:28 23° SSE 08:29:04 10° E visible
21 Jun 8.8 07:50:50 15° S 07:53:01 20° SSE 07:56:18 10° ESE visible
22 Jun 8.9 07:19:45 17° SSE 07:20:33 18° SSE 07:23:34 10° ESE visible
